Location: Kailua
(21.4020°N, 157.7390°W)
Time: 00:32:52
(UTC-10:00)

Cosmos 2221 Rocket - Visible Passes

Search period start: 07 February 2016 00:00
Search period end: 17 February 2016 00:00
Orbit: 620 x 649 km, 82.5° (Epoch: 07 February)

Date Brightness Start Highest point End Pass type
(mag) Time Alt. Az. Time Alt. Az. Time Alt. Az.
07 Feb 4.4 05:47:07 10° S 05:51:24 52° E 05:55:40 10° NNE visible
08 Feb 3.5 06:09:19 10° SSW 06:13:38 59° W 06:17:59 10° N visible
09 Feb 6.5 04:55:23 10° SE 04:58:05 16° E 05:00:46 10° NE visible
09 Feb 4.6 06:32:27 10° SW 06:35:58 23° W 06:39:30 10° NNW visible
10 Feb 4.9 05:16:06 10° SSE 05:20:12 39° E 05:24:18 10° NNE visible
11 Feb 3.4 05:38:02 10° S 05:42:24 78° W 05:46:49 10° N visible
12 Feb 6.7 04:25:06 10° ESE 04:26:55 12° E 04:28:44 10° ENE visible
12 Feb 4.3 06:00:52 10° SW 06:04:43 30° W 06:08:36 10° NNW visible
13 Feb 5.3 04:45:10 10° SSE 04:49:00 30° E 04:52:52 10° NNE visible
13 Feb 5.3 06:25:20 10° WSW 06:27:09 12° W 06:28:58 10° NW visible
14 Feb 5.5 05:14:16 20° N 05:14:16 20° N 05:15:36 10° N visible
